Tracking 22836 objects as of 18-Apr-2021
HD Live streaming from Space Station
objects crossing your sky now

WEOS

Track WEOS now!
10-day predictions
WEOS is classified as:


NORAD ID: 27599
Int'l Code: 2002-056C
Perigee: 792.5 km
Apogee: 808.4 km
Inclination: 98.6 °
Period: 100.7 minutes
Semi major axis: 7171 km
RCS: 0.3299 m2 (medium)
Launch date: December 14, 2002
Source: Japan (JPN)
Launch site: TANEGASHIMA SPACE CENTER (TNSTA)
aabbcc
Your satellite tracking list
Your tracking list is empty




NASA's NSSDC Master Catalog

Two Line Element Set (TLE):
1 27599U 02056C   21107.84550063  .00000034  00000-0  30462-4 0  9993
2 27599  98.5750  52.8858 0011051  81.5018 278.7416 14.29521501956741
Source of the keplerian elements: AFSPC